Change the Weather History Date:

Sunday, September 9, 2012

  Actual Average Record
Temperature  
Mean Temperature 58 °F -  
Max Temperature 73 °F 78 °F 100 °F (1959)
Min Temperature 42 °F 52 °F 37 °F (2008)
Degree Days  
Heating Degree Days 8    
Growing Degree Days 8 (Base 50)    
Moisture  
Dew Point 44 °F    
Average Humidity 66    
Maximum Humidity 100    
Minimum Humidity 31    
Precipitation  
Precipitation 0.00 in - - ()
Sea Level Pressure  
Sea Level Pressure 30.15 in    
Wind  
Wind Speed 4 mph (South)    
Max Wind Speed 10 mph    
Max Gust Speed -    
Visibility 10 miles    
Events      
Averages and records for this station are not official NWS values.
T = Trace of Precipitation, MM = Missing Value Source: NWS Daily Summary

Daily Weather History Graph

Daily Weather History Graph

Search for Another Location

Airport or City:

Trip Planner

Search our weather history database for the weather conditions in past years. The results will help you decide how hot, cold, wet, or windy it might be!

Date:

Astronomy

Sep. 09, 2012 Rise Set
Actual Time 6:57 AM CDT 7:48 PM CDT
Civil Twilight 6:27 AM CDT 8:18 PM CDT
Nautical Twilight 5:51 AM CDT 8:54 PM CDT
Astronomical Twilight 5:13 AM CDT 9:31 PM CDT
Moon 12:13 AM CDT (9/9) 3:47 PM CDT (9/9)
Length of Visible Light 13h 50m
Length of Day
12h 50m
Last Quarter, 39% of the Moon is Illuminated
Sep 9
Last Quarter
Sep 15
New
Sep 22
First Quarter
Sep 29
Full
Oct 8
Last Quarter

Hourly Weather History & Observations

Time (CDT) Temp. Windchill Dew Point Humidity Pressure Visibility Wind Dir Wind Speed Gust Speed Precip Events Conditions
12:18 AM 50.0 °F - 44.6 °F 82% 30.16 in 10.0 mi NW 4.6 mph - N/A   Clear
12:38 AM 50.0 °F - 44.6 °F 82% 30.16 in 10.0 mi NW 5.8 mph - N/A   Clear
12:59 AM 50.0 °F - 44.6 °F 82% 30.17 in 10.0 mi NW 3.5 mph - N/A   Clear
1:18 AM 50.0 °F - 44.6 °F 82% 30.17 in 10.0 mi Calm Calm - N/A   Clear
1:38 AM 48.2 °F - 44.6 °F 87% 30.18 in 10.0 mi NW 4.6 mph - N/A   Clear
1:58 AM 48.2 °F - 44.6 °F 87% 30.18 in 10.0 mi NW 4.6 mph - N/A   Clear
2:18 AM 48.2 °F - 44.6 °F 87% 30.18 in 10.0 mi NW 4.6 mph - N/A   Clear
2:38 AM 48.2 °F - 44.6 °F 87% 30.18 in 10.0 mi NW 3.5 mph - N/A   Clear
2:58 AM 46.4 °F - 42.8 °F 87% 30.18 in 10.0 mi Calm Calm - N/A   Clear
3:18 AM 46.4 °F 45.2 °F 42.8 °F 87% 30.19 in 10.0 mi NW 3.5 mph - N/A   Clear
3:39 AM 46.4 °F - 42.8 °F 87% 30.19 in 10.0 mi Calm Calm - N/A   Clear
3:59 AM 46.4 °F 45.2 °F 42.8 °F 87% 30.20 in 10.0 mi West 3.5 mph - N/A   Clear
4:19 AM 44.6 °F 42.2 °F 42.8 °F 93% 30.20 in 10.0 mi West 4.6 mph - N/A   Clear
4:59 AM 44.6 °F - 42.8 °F 93% 30.21 in 10.0 mi Calm Calm - N/A   Clear
5:19 AM 44.6 °F - 42.8 °F 93% 30.22 in 10.0 mi Calm Calm - N/A   Clear
5:39 AM 44.6 °F - 42.8 °F 93% 30.22 in 10.0 mi Calm Calm - N/A   Clear
5:59 AM 42.8 °F - 41.0 °F 93% 30.22 in 10.0 mi Calm Calm - N/A   Clear
6:19 AM 42.8 °F - 41.0 °F 93% 30.22 in 10.0 mi Calm Calm - N/A   Clear
6:39 AM 42.8 °F - 42.8 °F 100% 30.23 in 10.0 mi Calm Calm - N/A   Clear
6:59 AM 42.8 °F - 41.0 °F 93% 30.24 in 10.0 mi Calm Calm - N/A   Clear
7:18 AM 42.8 °F 41.1 °F 42.8 °F 100% 30.24 in 10.0 mi West 3.5 mph - N/A   Clear
7:38 AM 44.6 °F - 42.8 °F 93% 30.24 in 10.0 mi Calm Calm - N/A   Clear
7:58 AM 46.4 °F - 44.6 °F 93% 30.25 in 10.0 mi Calm Calm - N/A   Clear
8:19 AM 48.2 °F - 46.4 °F 93% 30.26 in 10.0 mi WNW 3.5 mph - N/A   Clear
8:39 AM 48.2 °F - 46.4 °F 93% 30.26 in 10.0 mi WNW 3.5 mph - N/A   Clear
9:19 AM 51.8 °F - 46.4 °F 82% 30.26 in 10.0 mi NNW 3.5 mph - N/A   Clear
9:39 AM 53.6 °F - 48.2 °F 82% 30.26 in 10.0 mi North 3.5 mph - N/A   Clear
9:59 AM 55.4 °F - 48.2 °F 77% 30.25 in 10.0 mi Calm Calm - N/A   Clear
10:18 AM 57.2 °F - 48.2 °F 72% 30.25 in 10.0 mi Calm Calm - N/A   Clear
10:38 AM 59.0 °F - 48.2 °F 67% 30.25 in 10.0 mi Calm Calm - N/A   Clear
10:58 AM 60.8 °F - 48.2 °F 63% 30.25 in 10.0 mi Calm Calm - N/A   Clear
11:18 AM 60.8 °F - 46.4 °F 59% 30.25 in 10.0 mi Calm Calm - N/A   Clear
11:40 AM 62.6 °F - 48.2 °F 59% 30.24 in 10.0 mi Calm Calm - N/A   Clear
11:59 AM 62.6 °F - 46.4 °F 55% 30.23 in 10.0 mi Calm Calm - N/A   Clear
12:18 PM 62.6 °F - 46.4 °F 55% 30.22 in 10.0 mi Calm Calm - N/A   Clear
12:38 PM 64.4 °F - 46.4 °F 52% 30.22 in 10.0 mi West 5.8 mph - N/A   Clear
12:58 PM 64.4 °F - 44.6 °F 49% 30.21 in 10.0 mi Calm Calm - N/A   Clear
1:18 PM 66.2 °F - 44.6 °F 46% 30.20 in 10.0 mi WSW 5.8 mph - N/A   Clear
1:38 PM 66.2 °F - 44.6 °F 46% 30.19 in 10.0 mi NNW 6.9 mph - N/A   Clear
1:59 PM 68.0 °F - 46.4 °F 46% 30.18 in 10.0 mi SSW 4.6 mph - N/A   Clear
2:18 PM 69.8 °F - 46.4 °F 43% 30.17 in 10.0 mi WSW 5.8 mph - N/A   Clear
2:38 PM 69.8 °F - 46.4 °F 43% 30.16 in 10.0 mi West 3.5 mph - N/A   Clear
2:58 PM 69.8 °F - 46.4 °F 43% 30.15 in 10.0 mi Calm Calm - N/A   Clear
3:18 PM 71.6 °F - 46.4 °F 41% 30.14 in 10.0 mi SE 3.5 mph - N/A   Clear
3:39 PM 71.6 °F - 42.8 °F 35% 30.13 in 10.0 mi SE 4.6 mph - N/A   Clear
3:58 PM 73.4 °F - 42.8 °F 33% 30.12 in 10.0 mi SW 4.6 mph - N/A   Clear
4:18 PM 73.4 °F - 41.0 °F 31% 30.11 in 10.0 mi South 8.1 mph - N/A   Clear
4:59 PM 73.4 °F - 41.0 °F 31% 30.09 in 10.0 mi Calm Calm - N/A   Clear
5:18 PM 73.4 °F - 42.8 °F 33% 30.09 in 10.0 mi SSE 6.9 mph - N/A   Clear
5:39 PM 73.4 °F - 41.0 °F 31% 30.08 in 10.0 mi South 3.5 mph - N/A   Clear
5:58 PM 73.4 °F - 41.0 °F 31% 30.07 in 10.0 mi SE 5.8 mph - N/A   Clear
6:18 PM 73.4 °F - 42.8 °F 33% 30.07 in 10.0 mi SSE 4.6 mph - N/A   Clear
6:38 PM 71.6 °F - 42.8 °F 35% 30.05 in 10.0 mi SE 8.1 mph - N/A   Clear
6:59 PM 71.6 °F - 42.8 °F 35% 30.05 in 10.0 mi SE 6.9 mph - N/A   Clear
7:18 PM 68.0 °F - 42.8 °F 40% 30.04 in 10.0 mi SE 4.6 mph - N/A   Clear
7:38 PM 64.4 °F - 44.6 °F 49% 30.04 in 10.0 mi SE 4.6 mph - N/A   Clear
7:58 PM 60.8 °F - 44.6 °F 55% 30.04 in 10.0 mi SE 5.8 mph - N/A   Clear
8:20 PM 60.8 °F - 44.6 °F 55% 30.03 in 10.0 mi SE 6.9 mph - N/A   Clear
8:38 PM 60.8 °F - 44.6 °F 55% 30.04 in 10.0 mi SE 8.1 mph - N/A   Clear
8:59 PM 59.0 °F - 44.6 °F 59% 30.04 in 10.0 mi SE 8.1 mph - N/A   Clear
9:18 PM 59.0 °F - 44.6 °F 59% 30.04 in 10.0 mi SE 8.1 mph - N/A   Clear
9:38 PM 57.2 °F - 44.6 °F 63% 30.03 in 10.0 mi SE 9.2 mph - N/A   Clear
9:58 PM 55.4 °F - 44.6 °F 67% 30.03 in 10.0 mi SE 10.4 mph - N/A   Clear
10:19 PM 55.4 °F - 44.6 °F 67% 30.03 in 10.0 mi SE 9.2 mph - N/A   Clear
10:38 PM 57.2 °F - 44.6 °F 63% 30.03 in 10.0 mi SE 9.2 mph - N/A   Clear
10:59 PM 57.2 °F - 44.6 °F 63% 30.03 in 10.0 mi SE 9.2 mph - N/A   Clear
11:18 PM 57.2 °F - 44.6 °F 63% 30.02 in 10.0 mi SE 9.2 mph - N/A   Clear
11:38 PM 55.4 °F - 44.6 °F 67% 30.02 in 10.0 mi SE 8.1 mph - N/A   Clear
11:59 PM 53.6 °F - 44.6 °F 72% 30.01 in 10.0 mi SE 8.1 mph - N/A   Clear